EW1587 Weather Reports


time (UTC)temp
C
wind
direction
speed
KPH
gust
KPH
rain 1hr
cm
rain 24hr
cm
rain mn
cm
humidity
%
barometer
mb
20260905141002 17 98 4.8 11.3 0.00 0.00 0.00 100 1016.6
20260905140504 17 73 6.4 11.3 0.00 0.00 0.00 100 1016.6
20260905140000 17 88 4.8 12.9 0.00 0.00 0.00 100 1016.6
20260905135502 16 58 6.4 12.9 0.00 0.00 0.00 100 1016.6
20260905135100 16 92 6.4 11.3 0.00 0.00 0.00 100 1016.5
20260905135003 16 110 6.4 11.3 0.00 0.00 0.00 100 1016.6
20260905134603 16 84 6.4 11.3 0.00 0.00 0.00 100 1016.5
20260905134059 16 73 6.4 9.7 0.00 0.00 0.00 100 1016.7
20260905133601 16 64 4.8 8.0 0.00 0.00 0.00 100 1016.6
20260905133059 16 69 4.8 8.0 0.00 0.00 0.00 100 1016.7
20260905132557 16 86 3.2 6.4 0.00 0.00 0.00 100 1016.8
20260905132057 16 96 1.6 6.4 0.00 0.00 0.00 100 1016.8
20260905131603 16 81 1.6 6.4 0.00 0.00 0.00 100 1016.8
20260905131055 16 57 1.6 6.4 0.00 0.00 0.00 100 1016.8
20260905130611 16 96 1.6 6.4 0.00 0.00 0.00 100 1016.7
20260905130055 16 89 1.6 6.4 0.00 0.00 0.00 100 1016.6
20260905125552 16 91 1.6 4.8 0.00 0.00 0.00 100 1016.5
20260905125047 16 103 1.6 8.0 0.00 0.00 0.00 100 1016.4
20260905124544 16 94 3.2 8.0 0.00 0.00 0.00 100 1016.1
20260905124510 16 128 3.2 8.0 0.00 0.00 0.00 100 1016.1
20260905124043 16 86 3.2 9.7 0.00 0.00 0.00 100 1015.9
20260905123539 16 92 4.8 11.3 0.00 0.00 0.00 100 1015.6
20260905123036 16 94 6.4 11.3 0.00 0.00 0.00 100 1015.5
20260905122540 16 93 4.8 11.3 0.00 0.00 0.00 100 1015.5
20260905122051 16 111 6.4 8.0 0.00 0.00 0.00 100 1015.4
20260905121533 16 106 3.2 8.0 0.00 0.00 0.00 100 1015.6
20260905121044 16 100 3.2 9.7 0.00 0.00 0.00 100 1015.6
20260905120557 16 113 4.8 9.7 0.00 0.00 0.00 100 1015.6
20260905120030 16 105 3.2 9.7 0.00 0.00 0.00 100 1015.3
20260905115530 16 92 3.2 9.7 0.00 0.00 0.00 100 1015.5
20260905115032 16 156 1.6 6.4 0.00 0.00 0.00 100 1015.6
20260905114532 16 91 4.8 8.0 0.00 0.00 0.00 100 1015.4
20260905114034 16 81 0.0 9.7 0.00 0.00 0.00 100 1015.7
20260905113528 16 72 4.8 11.3 0.00 0.00 0.00 100 1015.4
20260905113028 16 102 6.4 12.9 0.00 0.00 0.00 100 1015.3
20260905112529 16 101 6.4 12.9 0.00 0.00 0.00 100 1015.2
20260905112029 16 103 6.4 11.3 0.00 0.00 0.00 100 1015.2
20260905111528 16 79 4.8 11.3 0.00 0.00 0.00 100 1015.3
20260905111027 16 113 6.4 11.3 0.00 0.00 0.00 100 1015.3
20260905110527 16 79 4.8 9.7 0.00 0.00 0.00 100 1015.3
20260905110025 16 83 3.2 11.3 0.00 0.00 0.00 100 1015.3
20260905105525 16 94 1.6 11.3 0.00 0.00 0.00 100 1015.3
20260905105025 16 99 4.8 11.3 0.00 0.00 0.00 100 1015.2
20260905104526 16 88 1.6 6.4 0.00 0.00 0.00 100 1015.1
20260905104026 16 82 4.8 11.3 0.00 0.00 0.00 100 1015.1
20260905103523 16 101 4.8 11.3 0.00 0.00 0.00 100 1014.8
20260905103023 16 90 4.8 9.7 0.00 0.00 0.00 100 1014.8
20260905102523 16 110 4.8 9.7 0.00 0.00 0.00 100 1014.8
20260905102022 16 92 4.8 8.0 0.00 0.00 0.00 100 1014.9
20260905101526 16 92 3.2 6.4 0.00 0.00 0.00 100 1014.9
20260905101023 16 107 3.2 6.4 0.00 0.00 0.00 100 1014.8
20260905100522 16 95 1.6 6.4 0.00 0.00 0.00 100 1015.0
20260905100021 16 81 1.6 6.4 0.00 0.00 0.00 100 1015.0
20260905095521 16 106 3.2 6.4 0.00 0.00 0.00 100 1015.2
20260905095022 16 107 0.0 8.0 0.00 0.00 0.00 100 1014.9
20260905094522 16 111 4.8 12.9 0.00 0.00 0.00 100 1014.6
20260905094020 16 98 6.4 12.9 0.00 0.00 0.00 100 1014.4
20260905093519 16 119 3.2 8.0 0.00 0.00 0.00 100 1014.3
20260905093019 16 88 1.6 9.7 0.00 0.00 0.00 100 1014.2
20260905092518 16 85 4.8 11.3 0.00 0.00 0.00 100 1014.1
20260905092018 16 113 4.8 11.3 0.00 0.00 0.00 100 1014.1
20260905091518 16 88 3.2 14.5 0.00 0.00 0.00 100 1014.1
20260905091019 16 94 6.4 14.5 0.00 0.00 0.00 100 1014.2
20260905090518 16 105 6.4 12.9 0.00 0.00 0.00 100 1014.2
20260905090016 16 85 4.8 12.9 0.00 0.00 0.00 100 1014.2
20260905085515 16 68 6.4 9.7 0.00 0.00 0.00 100 1014.4
20260905085014 16 81 4.8 9.7 0.00 0.00 0.00 100 1014.6
20260905084513 16 90 4.8 9.7 0.00 0.00 0.00 100 1014.7
20260905084014 16 56 4.8 9.7 0.00 0.00 0.00 100 1014.8
20260905083513 16 94 6.4 12.9 0.00 0.00 0.00 100 1014.9
20260905083018 16 105 6.4 12.9 0.00 0.00 0.00 100 1014.9
20260905082513 16 93 4.8 9.7 0.00 0.00 0.00 100 1014.9
20260905082013 16 82 3.2 6.4 0.00 0.00 0.00 100 1015.0
20260905081512 16 115 3.2 8.0 0.00 0.00 0.00 100 1014.9
20260905081011 16 79 3.2 9.7 0.00 0.00 0.00 100 1014.8
20260905080511 16 48 4.8 12.9 0.00 0.00 0.00 100 1014.7
20260905080012 16 82 6.4 16.1 0.00 0.00 0.00 100 1014.7
20260905075510 16 51 9.7 17.7 0.00 0.00 0.00 100 1014.8
20260905075010 16 58 6.4 9.7 0.00 0.00 0.00 100 1014.8
20260905074516 16 102 3.2 9.7 0.00 0.00 0.00 100 1014.9
20260905074010 16 90 4.8 12.9 0.00 0.00 0.00 100 1014.9
20260905073509 16 107 6.4 12.9 0.00 0.00 0.00 100 1014.9
20260905073009 16 129 6.4 9.7 0.00 0.00 0.00 99 1014.9
20260905072509 16 97 6.4 9.7 0.00 0.00 0.00 99 1014.9
20260905072008 16 86 4.8 11.3 0.00 0.00 0.00 99 1014.8
20260905071516 16 98 3.2 11.3 0.00 0.00 0.00 99 1014.7
20260905071007 16 79 6.4 12.9 0.00 0.00 0.00 99 1014.7
20260905070507 16 68 6.4 12.9 0.00 0.00 0.00 99 1014.7
20260905070008 16 77 4.8 9.7 0.00 0.00 0.00 99 1014.7
20260905065510 17 82 6.4 11.3 0.00 0.00 0.00 99 1014.6
20260905065108 17 54 6.4 11.3 0.00 0.00 0.00 99 1014.7
20260905064507 16 77 4.8 12.9 0.00 0.00 0.00 99 1014.8
20260905064009 16 72 6.4 12.9 0.00 0.00 0.00 99 1015.0
20260905063505 16 75 6.4 11.3 0.00 0.00 0.00 99 1014.9
20260905063005 16 60 4.8 9.7 0.00 0.00 0.00 99 1014.9
20260905062508 16 72 6.4 11.3 0.00 0.00 0.00 99 1014.8
20260905062006 16 51 6.4 12.9 0.00 0.00 0.00 99 1014.7
20260905061506 16 70 8.0 16.1 0.00 0.00 0.00 99 1014.7
20260905061003 16 58 4.8 16.1 0.00 0.00 0.00 99 1014.6
20260905060503 16 70 8.0 17.7 0.00 0.00 0.00 99 1014.6
20260905060003 16 51 12.9 17.7 0.00 0.00 0.00 98 1014.6
20260905055501 16 63 8.0 16.1 0.00 0.00 0.00 98 1014.6
20260905055001 16 64 9.7 17.7 0.00 0.00 0.00 98 1014.7
20260905054501 16 72 6.4 11.3 0.00 0.00 0.00 98 1014.7
20260905054104 16 84 4.8 9.7 0.00 0.00 0.00 97 1014.8
20260905053559 17 61 4.8 9.7 0.00 0.00 0.00 97 1014.8
20260905053100 17 65 3.2 9.7 0.00 0.00 0.00 97 1014.8
20260905052558 17 68 3.2 6.4 0.00 0.00 0.00 97 1014.9
20260905052057 17 85 3.2 8.0 0.00 0.00 0.00 97 1014.9
20260905051556 17 115 3.2 9.7 0.00 0.00 0.00 97 1014.9
20260905051055 17 86 1.6 9.7 0.00 0.00 0.00 96 1014.6
20260905050555 17 71 1.6 9.7 0.00 0.00 0.00 96 1014.7
20260905050053 17 97 3.2 9.7 0.00 0.00 0.00 96 1014.8
20260905045553 17 91 4.8 11.3 0.00 0.00 0.00 96 1014.7
20260905045052 17 41 4.8 11.3 0.00 0.00 0.00 96 1014.6
20260905044552 17 86 6.4 11.3 0.00 0.00 0.00 96 1014.6
20260905044050 17 37 4.8 12.9 0.00 0.00 0.00 96 1014.6
20260905043549 17 101 6.4 12.9 0.00 0.00 0.00 96 1014.5
20260905043048 17 134 3.2 11.3 0.00 0.00 0.00 96 1014.4
20260905042551 18 63 3.2 9.7 0.00 0.00 0.00 95 1014.3
20260905042047 18 77 3.2 9.7 0.00 0.00 0.00 95 1014.3
20260905041547 18 81 4.8 9.7 0.00 0.00 0.00 95 1014.2
20260905041045 18 172 4.8 11.3 0.00 0.00 0.00 95 1014.2
20260905040545 18 71 8.0 12.9 0.00 0.00 0.00 94 1014.3
20260905040051 18 110 9.7 14.5 0.00 0.00 0.00 94 1014.3
20260905035543 18 77 9.7 14.5 0.00 0.00 0.00 94 1014.3
20260905035042 18 120 6.4 14.5 0.00 0.00 0.00 94 1014.4
20260905034541 18 79 3.2 9.7 0.00 0.00 0.00 93 1014.2
20260905034041 18 88 4.8 11.3 0.00 0.00 0.00 93 1014.2
20260905033539 19 89 8.0 16.1 0.00 0.00 0.00 92 1014.2
20260905033039 19 68 8.0 16.1 0.00 0.00 0.00 92 1014.1
20260905032539 19 73 9.7 14.5 0.00 0.00 0.00 92 1014.1
20260905032038 19 91 11.3 14.5 0.00 0.00 0.00 91 1014.1
20260905031538 20 111 9.7 17.7 0.00 0.00 0.00 91 1014.1
20260905031037 20 75 9.7 17.7 0.00 0.00 0.00 91 1013.9
20260905030538 20 70 11.3 17.7 0.00 0.00 0.00 91 1013.8
20260905030044 20 69 9.7 14.5 0.00 0.00 0.00 91 1013.9
20260905025537 20 61 9.7 14.5 0.00 0.00 0.00 91 1013.9
20260905025036 21 68 4.8 12.9 0.00 0.00 0.00 90 1014.0
20260905024536 21 95 6.4 12.9 0.00 0.00 0.00 90 1013.9
20260905024034 21 60 6.4 16.1 0.00 0.00 0.00 90 1013.8
20260905023533 21 48 9.7 16.1 0.00 0.00 0.00 90 1013.6
20260905023033 21 96 8.0 11.3 0.00 0.00 0.00 90 1013.5
20260905022533 21 109 6.4 11.3 0.00 0.00 0.00 89 1013.5
20260905022032 21 54 6.4 12.9 0.00 0.00 0.00 89 1013.5
20260905021532 22 77 8.0 12.9 0.00 0.00 0.00 89 1013.4
20260905021030 22 78 8.0 11.3 0.00 0.00 0.00 89 1013.3
20260905020530 22 112 3.2 9.7 0.00 0.00 0.00 90 1013.2
20260905020032 22 77 3.2 8.0 0.00 0.00 0.00 90 1013.0
20260905015529 22 91 0.0 4.8 0.00 0.00 0.00 89 1013.1
20260905015030 22 79 0.0 3.2 0.00 0.00 0.00 89 1013.0
20260905014528 22 91 0.0 4.8 0.00 0.00 0.00 89 1013.1
20260905014028 22 73 1.6 4.8 0.00 0.00 0.00 88 1013.0
20260905013532 22 77 0.0 4.8 0.00 0.00 0.00 87 1012.9
20260905013028 22 77 0.0 4.8 0.00 0.00 0.00 87 1012.9
20260905012527 22 85 0.0 4.8 0.00 0.00 0.00 86 1012.8
20260905012025 23 117 0.0 3.2 0.00 0.00 0.00 85 1012.8
20260905011525 23 110 0.0 3.2 0.00 0.00 0.00 85 1012.7
20260905011024 23 101 0.0 1.6 0.00 0.00 0.00 85 1012.6
20260905010525 23 97 0.0 1.6 0.00 0.00 0.00 85 1012.6
20260905010124 23 99 0.0 1.6 0.00 0.00 0.00 85 1012.6
20260905005524 23 87 0.0 1.6 0.00 0.00 0.00 83 1012.6
20260905005025 24 88 0.0 1.6 0.00 0.00 0.00 83 1012.6
20260905004524 24 73 0.0 4.8 0.00 0.00 0.00 82 1012.6
20260905004024 25 77 0.0 8.0 0.00 0.00 0.00 81 1012.5
20260905003525 25 67 1.6 8.0 0.00 0.00 0.00 80 1012.5
20260905003022 25 68 0.0 8.0 0.00 0.00 0.00 78 1012.5
20260905002521 25 105 3.2 9.7 0.00 0.00 0.00 77 1012.4
20260905002021 26 68 6.4 9.7 0.00 0.00 0.00 76 1012.4
20260905001521 26 70 6.4 9.7 0.00 0.00 0.00 76 1012.4
20260905001023 26 67 4.8 8.0 0.00 0.00 0.00 75 1012.4
20260905000520 26 91 3.2 8.0 0.00 0.00 0.00 75 1012.3
20260905000020 26 89 3.2 11.3 0.00 0.00 0.00 74 1012.2
20260904235519 26 87 6.4 12.9 0.00 0.00 0.00 73 1012.2
20260904235024 27 65 6.4 12.9 0.00 0.00 0.00 73 1012.2
20260904234521 27 65 1.6 9.7 0.00 0.00 0.00 73 1012.2
20260904234019 27 86 3.2 12.9 0.00 0.00 0.00 72 1012.2
20260904233519 27 60 3.2 12.9 0.00 0.00 0.00 72 1012.1
20260904233019 27 57 6.4 12.9 0.00 0.00 0.00 71 1012.2
20260904232518 27 77 8.0 12.9 0.00 0.00 0.00 70 1012.2
20260904232018 27 83 3.2 12.9 0.00 0.00 0.00 70 1012.1
20260904231517 27 72 6.4 12.9 0.00 0.00 0.00 68 1012.1
20260904231017 27 90 6.4 12.9 0.00 0.00 0.00 70 1012.1
20260904230517 27 73 8.0 12.9 0.00 0.00 0.00 69 1012.1
20260904230025 27 87 4.8 16.1 0.00 0.00 0.00 68 1012.0
20260904225516 27 73 4.8 16.1 0.00 0.00 0.00 69 1011.9
20260904225016 27 58 6.4 12.9 0.00 0.00 0.00 69 1011.8
20260904224525 27 12 8.0 14.5 0.00 0.00 0.00 68 1011.9
20260904224016 27 113 6.4 16.1 0.00 0.00 0.00 69 1011.8
20260904223517 27 70 9.7 16.1 0.00 0.00 0.00 67 1011.8
20260904223015 27 65 6.4 16.1 0.00 0.00 0.00 68 1011.7
20260904222518 27 70 11.3 16.1 0.00 0.00 0.00 68 1011.7
20260904222015 27 81 6.4 16.1 0.00 0.00 0.00 69 1011.6
20260904221521 27 77 9.7 16.1 0.00 0.00 0.00 67 1011.7
20260904221015 27 81 9.7 14.5 0.00 0.00 0.00 68 1011.7
20260904220513 27 108 6.4 12.9 0.00 0.00 0.00 68 1011.6
20260904220012 27 90 6.4 12.9 0.00 0.00 0.00 69 1011.6
20260904215512 27 110 8.0 12.9 0.00 0.00 0.00 70 1011.5
20260904215011 27 85 6.4 11.3 0.00 0.00 0.00 69 1011.5
20260904214517 27 71 6.4 11.3 0.00 0.00 0.00 70 1011.6
20260904214009 27 94 3.2 11.3 0.00 0.00 0.00 71 1011.7
20260904213511 27 98 6.4 12.9 0.00 0.00 0.00 71 1011.6
20260904213009 27 92 8.0 12.9 0.00 0.00 0.00 71 1011.6
20260904212509 27 98 6.4 12.9 0.00 0.00 0.00 72 1011.5
20260904212008 27 105 6.4 14.5 0.00 0.00 0.00 71 1011.5
20260904211507 27 113 8.0 14.5 0.00 0.00 0.00 72 1011.5
20260904211012 27 65 8.0 14.5 0.00 0.00 0.00 72 1011.4
20260904210507 27 81 8.0 14.5 0.00 0.00 0.00 73 1011.5
20260904210006 27 84 8.0 12.9 0.00 0.00 0.00 74 1011.5
20260904205507 27 98 6.4 14.5 0.00 0.00 0.00 73 1011.6
20260904205005 27 77 8.0 14.5 0.00 0.00 0.00 74 1011.5
20260904204508 27 88 6.4 12.9 0.00 0.00 0.00 74 1011.5
20260904204004 26 104 6.4 12.9 0.00 0.00 0.00 75 1011.5
20260904203504 26 103 8.0 11.3 0.00 0.00 0.00 75 1011.6
20260904203003 27 101 6.4 11.3 0.00 0.00 0.00 75 1011.7
20260904202503 26 84 8.0 12.9 0.00 0.00 0.00 75 1011.7
20260904202003 27 108 6.4 19.3 0.00 0.00 0.00 76 1011.7
20260904201503 27 47 11.3 19.3 0.00 0.00 0.00 75 1011.6
20260904201003 26 64 6.4 19.3 0.00 0.00 0.00 75 1011.6
20260904200502 26 93 8.0 19.3 0.00 0.00 0.00 75 1011.6
20260904200002 26 96 9.7 16.1 0.00 0.00 0.00 76 1011.7
20260904195504 26 70 9.7 17.7 0.00 0.00 0.00 76 1011.6
20260904195001 26 75 9.7 20.9 0.00 0.00 0.00 77 1011.6
20260904194608 26 152 11.3 20.9 0.00 0.00 0.00 78 1011.7
20260904194100 26 73 14.5 17.7 0.00 0.00 0.00 77 1011.7
20260904193600 26 103 9.7 17.7 0.00 0.00 0.00 77 1011.7
20260904193059 26 69 12.9 20.9 0.00 0.00 0.00 77 1011.7
20260904192558 26 96 11.3 16.1 0.00 0.00 0.00 77 1011.7
20260904192058 26 56 8.0 16.1 0.00 0.00 0.00 78 1011.6
20260904191557 26 97 9.7 16.1 0.00 0.00 0.00 78 1011.7
20260904191156 26 83 8.0 14.5 0.00 0.00 0.00 78 1011.7
20260904190555 26 101 8.0 19.3 0.00 0.00 0.00 79 1011.7
20260904190057 26 77 9.7 20.9 0.00 0.00 0.00 80 1011.7
20260904185554 26 108 8.0 20.9 0.00 0.00 0.00 80 1011.8
20260904185054 26 56 11.3 20.9 0.00 0.00 0.00 81 1011.8
20260904184554 26 81 6.4 20.9 0.00 0.00 0.00 82 1011.8
20260904184055 26 58 11.3 19.3 0.00 0.00 0.00 81 1011.8
20260904183552 25 75 9.7 14.5 0.00 0.00 0.00 82 1011.8
20260904183110 25 98 8.0 14.5 0.00 0.00 0.00 83 1011.9
20260904182549 25 109 6.4 17.7 0.00 0.00 0.00 84 1012.0
20260904182049 25 105 8.0 17.7 0.00 0.00 0.00 84 1012.0
20260904181549 25 85 9.7 17.7 0.00 0.00 0.00 84 1011.9
20260904181051 25 67 8.0 17.7 0.00 0.00 0.00 84 1011.9
20260904180551 25 77 11.3 17.7 0.00 0.00 0.00 84 1011.8
20260904180048 25 75 11.3 22.5 0.00 0.00 0.00 85 1011.8
20260904175547 25 96 11.3 22.5 0.00 0.00 0.00 85 1011.8
20260904175049 25 81 6.4 24.1 0.00 0.00 0.00 86 1011.8
20260904174546 25 75 14.5 24.1 0.00 0.00 0.00 86 1011.7
20260904174043 24 96 9.7 22.5 0.00 0.00 0.00 87 1011.7
20260904173542 24 75 12.9 22.5 0.00 0.00 0.00 88 1011.7
20260904173043 24 74 12.9 22.5 0.00 0.00 0.00 89 1011.6
20260904172539 23 91 9.7 22.5 0.00 0.00 0.00 90 1011.6
20260904172039 23 79 12.9 24.1 0.00 0.00 0.00 90 1011.6
20260904171542 23 52 14.5 22.5 0.00 0.00 0.00 89 1011.6
20260904171042 23 126 11.3 22.5 0.00 0.00 0.00 90 1011.5
20260904170541 23 60 16.1 22.5 0.00 0.00 0.00 89 1011.5
20260904170039 23 123 6.4 16.1 0.00 0.00 0.00 91 1011.5
20260904165536 23 87 6.4 16.1 0.00 0.00 0.00 91 1011.5
20260904165036 23 83 11.3 17.7 0.00 0.00 0.00 90 1011.5
20260904164534 23 86 9.7 17.7 0.00 0.00 0.00 93 1011.5
20260904164034 22 74 11.3 17.7 0.00 0.00 0.00 93 1011.6
20260904163532 22 68 12.9 17.7 0.00 0.00 0.00 95 1011.4
20260904163134 22 114 11.3 17.7 0.00 0.00 0.00 95 1011.3
20260904162531 22 77 11.3 17.7 0.00 0.00 0.00 96 1011.3
20260904162032 22 63 11.3 14.5 0.00 0.00 0.00 96 1011.3
20260904161531 21 86 4.8 12.9 0.00 0.00 0.00 97 1011.4
20260904161030 21 69 6.4 11.3 0.00 0.00 0.00 98 1011.3
20260904160529 21 54 4.8 11.3 0.00 0.00 0.00 99 1011.2
20260904160029 21 82 6.4 11.3 0.00 0.00 0.00 99 1011.2
20260904155529 21 73 0.0 11.3 0.00 0.00 0.00 100 1011.1
20260904155028 20 82 6.4 12.9 0.00 0.00 0.00 100 1011.1
20260904154528 20 98 9.7 14.5 0.00 0.00 0.00 100 1011.1
20260904154028 20 74 8.0 14.5 0.00 0.00 0.00 100 1011.1
20260904153527 20 69 6.4 11.3 0.00 0.00 0.00 100 1011.0
20260904153026 20 96 6.4 14.5 0.00 0.00 0.00 100 1010.9
20260904152526 20 67 6.4 14.5 0.00 0.00 0.00 100 1010.8
20260904152025 20 56 4.8 12.9 0.00 0.00 0.00 100 1010.8
20260904151527 20 58 9.7 16.1 0.00 0.00 0.00 100 1010.8
20260904151024 20 84 8.0 12.9 0.00 0.00 0.00 100 1010.8
20260904150524 20 66 4.8 11.3 0.00 0.00 0.00 100 1010.7
20260904150027 20 47 6.4 12.9 0.00 0.00 0.00 100 1010.7
20260904145524 20 63 8.0 11.3 0.00 0.00 0.00 100 1010.6
20260904145022 20 47 4.8 9.7 0.00 0.00 0.00 100 1010.6
20260904144524 20 23 0.0 8.0 0.00 0.00 0.00 100 1010.6
20260904144022 20 73 3.2 8.0 0.00 0.00 0.00 100 1010.6
20260904143522 20 62 0.0 6.4 0.00 0.00 0.00 100 1010.5
20260904143021 20 69 4.8 6.4 0.00 0.00 0.00 100 1010.6
20260904142520 20 71 3.2 6.4 0.00 0.00 0.00 100 1010.3
20260904142020 19 85 1.6 6.4 0.00 0.00 0.00 100 1010.3
20260904141519 19 65 0.0 6.4 0.00 0.00 0.00 100 1010.3